Current weather by "City, St" or "zip code"  
 

Current Conditions: Chenault Airpark, LA

Clear


61.0 F

Last Updated on Oct 26 2020, 6:50 am CDT
Humidity: 94%
Wind Speed: N 0.0 mph
Barometer 30.02 in
Dewpoint: 59.0 F
Visibility: 10.00 mi
Precip: --
Heat Index: NA
Wind Chill: NA
Current conditions at:

Chenault Airpark, LA (KCWF)

Lat: 30.21667 Lon: 93.15

Local Radar Image active severe weather and emergency alerts image image weather storm and storm spotter reports image weather observation monitoring service image
Local
Radar
Active
Alerts
Storm Reports Obs
Monitoring

Sign-up For Email & Text Message Weather Alert Notification Services



Advertise Here

Observation History for Chenault Airpark, LA


Time Wind
(mph)
Vis
(mi)
Weather Precip (in) Temperature (F) Relative
Humidity
Wind
Chill
(F)
Heat
Index
(F)
Pressure
Air Dwpt altimeter
(in)
sea level
(mb)
Rmks
6:50 am CDT N 0.0 10.00 Clear -- 61.0 59.0 94% NA NA 30.02 M
5:35 am CDT E 4.6 10.00 Fair -- 61.0 60.1 96% 61 NA 29.98 M
4:55 am CDT E 5.8 10.00 Fair -- 62.0 60.1 95% 62 NA 29.97 M
4:35 am CDT E 5.8 10.00 Fair -- 62.0 60.1 95% 62 NA 29.97 M
3:55 am CDT E 6.9 10.00 Fair -- 62.0 60.3 95% 62 NA 29.98 M
3:35 am CDT E 5.8 10.00 Fair -- 62.0 60.1 94% 62 NA 29.98 M
2:55 am CDT E 6.9 10.00 Fair -- 62.0 60.4 94% 62 NA 29.98 M
1:55 am CDT E 6.9 10.00 Fair -- 62.0 60.4 93% 62 NA 29.97 M
1:35 am CDT E 6.9 10.00 Fair -- 63.0 60.4 92% 63 NA 29.97 M
12:55 am CDT E 6.9 10.00 Fair -- 64.0 60.8 88% NA NA 29.97 M
12:35 am CDT E 6.9 10.00 Fair -- 64.0 60.8 90% NA NA 29.97 M
11:55 pm CDT E 6.9 10.00 Mostly Cloudy -- 65.0 61.0 87% NA NA 29.99 M
10:55 pm CDT E 4.6 10.00 Overcast -- 66.0 60.8 84% NA NA 29.98 M
10:35 pm CDT NE 5.8 10.00 Overcast -- 66.0 61.3 84% NA NA 29.98 M
9:50 pm CDT E 6.9 10.00 Overcast -- 66.0 62.6 88% NA NA 29.98 M
8:50 pm CDT E 5.8 10.00 Overcast -- 66.0 62.6 88% NA NA 29.96 M
6:50 pm CDT E 6.9 10.00 Overcast -- 66.0 60.8 83% NA NA 29.95 M
5:50 pm CDT E 8.1 10.00 Mostly Cloudy -- 70.0 60.8 73% NA NA 29.94 M
4:55 pm CDT E 8.1 10.00 Overcast -- 70.0 60.8 73% NA NA 29.94 M
3:55 pm CDT E 5.8 10.00 Overcast -- 70.0 60.8 73% NA NA 29.94 M
2:50 pm CDT NE 5.8 10.00 Overcast -- 70.0 60.8 73% NA NA 29.95 M
1:47 pm CDT NE 4.6 10.00 Overcast -- 70.0 60.8 73% NA NA 29.98 M
12:49 pm CDT E 4.6 10.00 Overcast -- 68.0 59.0 73% NA NA 30.01 M
11:50 am CDT N 0.0 10.00 Mostly Cloudy -- 64.0 57.2 78% NA NA 30.03 M

Regional Weather Observation


Lake Charles Regional Airport, LA (KLCH)

Fair
60.0 F

Southland Field, LA (KUXL)

Mostly Cloudy
62.0 F

De Ridder, Beauregard Parish Airport, LA (KDRI)

Overcast
60.0 F

Orange, Orange County Airport, TX (KORG)

Overcast
65.0 F

Oakdale, Allen Parish Airport, LA (KACP)

Partly Cloudy
57.0 F

Jasper, Jasper County-Bell Field Airport, TX (KJAS)

Overcast
63.0 F